Location: Lake Hudson State Recreational Area
(41.8372°N, 84.2445°W)
Time: 16:29:07
(UTC-04:00)

ISS - Visible Passes

Search period start: 18 July 2018 00:00
Search period end: 28 July 2018 00:00
Orbit: 402 x 408 km, 51.6° (Epoch: 19 July)

Date Brightness Start Highest point End Pass type
(mag) Time Alt. Az. Time Alt. Az. Time Alt. Az.
18 Jul -1.4 01:00:29 23° N 01:00:29 23° N 01:02:19 10° NE visible
18 Jul -0.6 02:34:45 10° NW 02:36:45 15° N 02:38:45 10° NE visible
18 Jul -1.1 04:11:29 10° NW 04:14:08 22° NNE 04:16:47 10° ENE visible
18 Jul -2.8 22:28:06 10° SSW 22:35:08 - ENE 22:30:44 25° SE visible
19 Jul -2.5 00:04:06 10° W 00:07:13 40° NNW 00:10:22 10° NE visible
19 Jul -0.7 01:42:13 10° NW 01:44:22 16° N 01:46:32 10° NNE visible
19 Jul -0.8 03:19:28 10° NNW 03:21:49 18° NNE 03:24:08 10° ENE visible
19 Jul -3.1 04:55:34 10° NW 04:58:50 56° NNE 05:02:05 10° ESE visible
19 Jul -3.6 23:11:48 10° WSW 23:15:03 70° NNW 23:18:21 10° NE visible
20 Jul -1.0 00:49:34 10° WNW 00:52:00 19° NNW 00:54:27 10° NNE visible
20 Jul -0.6 02:27:20 10° NNW 02:29:26 15° N 02:31:31 10° NE visible
20 Jul -2.1 04:03:34 10° NW 04:06:38 34° NNE 04:09:41 10° E visible
20 Jul -3.1 05:40:07 10° WNW 05:43:06 32° SW 05:46:05 10° SSE visible
20 Jul -3.9 22:19:44 10° SW 22:22:57 62° SE 22:26:12 10° ENE visible
20 Jul -1.4 23:56:54 10° WNW 23:59:40 24° NNW 00:02:26 10° NE visible
21 Jul -0.6 01:35:02 10° NW 01:37:01 15° N 01:38:59 10° NE visible
21 Jul -1.4 03:11:35 10° NW 03:14:22 24° NNE 03:17:08 10° ENE visible
21 Jul -3.9 04:47:49 10° WNW 04:51:05 63° SW 04:54:20 10° SE visible
21 Jul -2.1 23:04:21 10° W 23:07:23 34° NNW 23:10:26 10° NE visible
22 Jul -0.6 00:42:31 10° NW 00:44:36 15° N 00:46:40 10° NNE visible
22 Jul -1.0 02:19:34 10° NNW 02:22:01 19° NNE 02:24:28 10° ENE visible
22 Jul -3.6 03:55:40 10° NW 03:58:58 69° NNE 04:02:14 10° ESE visible
22 Jul -2.0 05:33:16 10° W 05:35:04 14° SW 05:36:52 10° SSW visible
22 Jul -3.1 22:11:57 10° WSW 22:15:09 56° NNW 22:18:24 10° NE visible
22 Jul -0.8 23:49:51 10° WNW 23:52:11 18° NNW 23:54:30 10° NNE visible
23 Jul -0.8 01:27:27 10° NNW 01:29:37 16° N 01:30:50 14° NE visible
23 Jul -1.2 22:57:09 10° WNW 22:59:47 22° NNW 23:02:26 10° NE visible
24 Jul -0.6 00:35:11 10° NW 00:37:10 15° N 00:39:09 10° NE visible
24 Jul -0.7 02:11:35 10° NW 02:12:01 13° NW 02:12:01 13° NW visible
24 Jul -1.7 22:04:31 10° W 22:07:27 30° NNW 22:10:24 10° NE visible
24 Jul -0.7 23:42:41 10° NW 23:44:42 15° N 23:46:43 10° NE visible
25 Jul -0.9 01:19:32 10° NW 01:21:06 18° N 01:21:06 18° N visible
25 Jul -0.8 22:50:01 10° NW 22:52:14 17° N 22:54:27 10° NNE visible
26 Jul -1.1 00:27:26 10° NNW 00:29:41 17° N 00:30:20 16° NNE visible
26 Jul -1.1 21:57:17 10° WNW 21:59:48 20° NNW 22:02:20 10° NE visible
26 Jul -0.8 23:35:11 10° NNW 23:37:12 15° N 23:39:14 10° NE visible
27 Jul -0.8 01:11:28 10° NW 01:12:16 15° NNW 01:12:16 15° NNW visible
27 Jul -0.9 22:42:44 10° NW 22:44:43 15° N 22:46:41 10° NE visible
